Tracking 19485 objects as of 21-Jan-2019
HD Live streaming from Space Station
objects crossing your sky now

IRIDIUM 138

Track IRIDIUM 138 now!
10-day predictions
IRIDIUM 138 is classified as:


NORAD ID: 43071
Int'l Code: 2017-083B
Perigee: 783.4 km
Apogee: 786.2 km
Inclination: 86.4 °
Period: 100.4 minutes
Semi major axis: 7155 km
RCS: Unknown
Launch date: December 23, 2017
Source: United States (US)
Launch site: AIR FORCE WESTERN TEST RANGE (AFWTR)
aabbcc
Your satellite tracking list
Your tracking list is empty




NASA's NSSDC Master Catalog

Two Line Element Set (TLE):
1 43071U 17083B   19020.53055228  .00000066  00000-0  16329-4 0  9993
2 43071  86.3955  12.2434 0001958  91.4208 268.7212 14.34216533 56478
Source of the keplerian elements: AFSPC